Content
SEND FEEDBACK

Daily
Averages
Monthly
Summary
United States of America

FAYETTEVILLE, TENNESSEE


Home > North America > United States > Tennessee
Elevation: 700 feet     Latitude: 35 10N     Longitude: 086 33W

WEATHER
 
SELECT A DAY
Number of Records: 298,317;   Date Range: 4/22/02 - 8/30/14
 
SHARE

PRINT THIS DATA

[ ← Previous Day ]
WEATHER ALMANAC - OCTOBER 17, 2013
[ Next Day → ]
[ °C ]   °F
Weather ElementAverageHighLow
Temperature58.8 °F64.4 °F (12:35 am)48.2 °F (9:55 pm)
Dewpoint55.7 °F62.6 °F (12:35 am)46.4 °F (9:35 pm)
Humidity89.6 %100 % (1:55 am)72 % (2:55 pm)
Barometer29.96 in30.03 in (9:55 pm)29.90 in (4:15 am)
Wind Speed2.7 mph10.4 mph (11:15 am)
Weather ElementAverage
Visibility6 mi
Wind DirectionESE (115.5 °)

Weather ElementTotal
Precipitation0.14 in
Heating Degree Days8.7 (Base 65)
Growing Degree Days6.3 (Base 50)
Averaged from 71 records on October 17, 2013
WEATHER CONDITIONS BREAKOUT
WIND DIRECTION BREAKOUT
WEATHER BY HOUR - OCTOBER 17, 2013
[ °C ]   °F
Local TimeTemperatureDewpointHumidityBarometerVisibilityWind DirectionWind SpeedGust SpeedPrecipitationEventsConditions
12:35 AM64.4 °F62.6 °F94 %29.94 in4.0 miCalmDrizzle
12:55 AM64.4 °F62.6 °F94 %29.94 in4.0 miCalmDrizzle
1:15 AM64.4 °F62.6 °F94 %29.94 in10.0 miCalm0.01 inOvercast
1:35 AM64.4 °F62.6 °F94 %29.93 in5.0 miCalm0.01 inRainHeavy Rain
1:55 AM62.6 °F62.6 °F100 %29.93 in5.0 miCalm0.01 inLight Drizzle
2:15 AM62.6 °F62.6 °F100 %29.92 in3.0 miCalmLight Drizzle
2:35 AM62.6 °F62.6 °F100 %29.92 in4.0 miCalm0.01 inRainRain
2:55 AM62.6 °F62.6 °F100 %29.92 in4.0 miCalm0.01 inLight Drizzle
3:15 AM62.6 °F62.6 °F100 %29.91 in5.0 miCalm0.01 inRainRain
3:35 AM62.6 °F62.6 °F100 %29.91 in3.0 miCalm0.01 inDrizzle
3:55 AM62.6 °F62.6 °F100 %29.91 in3.0 miCalm0.02 inRainHeavy Rain
4:15 AM62.6 °F60.8 °F94 %29.90 in10.0 miCalmOvercast
4:35 AM62.6 °F60.8 °F94 %29.90 in7.0 miCalmOvercast
4:55 AM62.6 °F60.8 °F94 %29.90 in4.0 miCalmRainRain
5:15 AM62.6 °F60.8 °F94 %29.90 in4.0 miCalmDrizzle
5:35 AM62.6 °F60.8 °F94 %29.90 in2.5 miCalmDrizzle
5:55 AM62.6 °F60.8 °F94 %29.90 in5.0 miCalmLight Drizzle
6:15 AM62.6 °F60.8 °F94 %29.91 in4.0 miCalmHeavy Drizzle
6:35 AM62.6 °F60.8 °F94 %29.91 in3.0 miCalm0.01 inHeavy Drizzle
6:55 AM62.6 °F60.8 °F94 %29.91 in5.0 miCalm0.01 inDrizzle
7:15 AM62.6 °F60.8 °F94 %29.91 in5.0 miCalm0.01 inDrizzle
7:35 AM62.6 °F62.6 °F100 %29.92 in5.0 miCalm0.01 inOvercast
7:55 AM62.6 °F62.6 °F100 %29.92 in1.2 miWest (280°)4.6 mph0.01 inDrizzle
8:15 AM62.6 °F60.8 °F94 %29.94 in4.0 miWest (270°)5.8 mphOvercast
8:35 AM62.6 °F60.8 °F94 %29.94 in1.8 miWNW (300°)6.9 mphOvercast
8:55 AM62.6 °F60.8 °F94 %29.95 in5.0 miWNW (290°)8.1 mphOvercast
9:15 AM62.6 °F60.8 °F94 %29.96 in4.0 miWNW (290°)6.9 mphOvercast
9:35 AM60.8 °F60.8 °F100 %29.97 in7.0 miWNW (300°)6.9 mphOvercast
9:55 AM60.8 °F60.8 °F100 %29.97 in10.0 miWNW (300°)6.9 mphOvercast
10:15 AM60.8 °F60.8 °F100 %29.97 in10.0 miNW (310°)8.1 mphOvercast
10:35 AM60.8 °F59.0 °F94 %29.98 in10.0 miNNW (330°)9.2 mphOvercast
10:55 AM60.8 °F59.0 °F94 %29.98 in10.0 miNW (320°)4.6 mphOvercast
11:15 AM60.8 °F59.0 °F94 %29.98 in10.0 miNW (320°)10.4 mphOvercast
11:35 AM60.8 °F55.4 °F82 %29.98 in10.0 miNNW (340°)9.2 mphOvercast
11:55 AM60.8 °F55.4 °F82 %29.98 in10.0 miNNW (340°)6.9 mphOvercast
12:15 PM60.8 °F55.4 °F82 %29.98 in10.0 miNNW (330°)5.8 mphOvercast
12:35 PM60.8 °F55.4 °F82 %29.98 in10.0 miNorth (350°)9.2 mphOvercast
12:55 PM60.8 °F53.6 °F77 %29.97 in10.0 miNW (320°)6.9 mphOvercast
1:15 PM59.0 °F53.6 °F82 %29.97 in10.0 miNorth (360°)9.2 mphOvercast
1:35 PM59.0 °F53.6 °F82 %29.97 in10.0 miNorth (360°)6.9 mphOvercast
1:55 PM59.0 °F53.6 °F82 %29.97 in10.0 miNorth (10°)3.5 mphOvercast
2:15 PM59.0 °F53.6 °F82 %29.97 in10.0 miNNW (330°)6.9 mphOvercast
2:35 PM59.0 °F51.8 °F77 %29.97 in10.0 miNNW (330°)4.6 mphOvercast
2:55 PM60.8 °F51.8 °F72 %29.97 in10.0 miNorth (10°)6.9 mphOvercast
3:15 PM60.8 °F51.8 °F72 %29.97 in10.0 miNorth (350°)6.9 mphOvercast
3:35 PM60.8 °F51.8 °F72 %29.97 in10.0 miNNE (20°)6.9 mphOvercast
3:55 PM59.0 °F51.8 °F77 %29.97 in10.0 miNorth (360°)10.4 mphOvercast
4:15 PM59.0 °F51.8 °F77 %29.97 in10.0 miNorth (360°)6.9 mphMostly Cloudy
4:35 PM59.0 °F51.8 °F77 %29.98 in10.0 miNorth (360°)4.6 mphMostly Cloudy
4:55 PM59.0 °F51.8 °F77 %29.98 in10.0 miNorth (360°)3.5 mphMostly Cloudy
5:15 PM59.0 °F50.0 °F72 %29.98 in10.0 miCalmMostly Cloudy
5:35 PM59.0 °F50.0 °F72 %29.98 in10.0 miCalmOvercast
5:55 PM59.0 °F51.8 °F77 %29.98 in10.0 miCalmOvercast
6:15 PM57.2 °F51.8 °F82 %29.98 in10.0 miCalmOvercast
6:35 PM57.2 °F51.8 °F82 %29.99 in10.0 miCalmScattered Clouds
6:55 PM53.6 °F50.0 °F88 %30.00 in10.0 miCalmClear
7:15 PM53.6 °F51.8 °F94 %30.01 in7.0 miCalmClear
7:35 PM51.8 °F51.8 °F100 %30.01 in3.0 miCalmClear
7:55 PM51.8 °F50.0 °F94 %30.02 in0.8 miCalmMist
8:15 PM51.8 °F50.0 °F94 %30.02 in2.0 miCalmClear
8:35 PM50.0 °F48.2 °F94 %30.02 in0.8 miCalmMist
8:55 PM50.0 °F48.2 °F94 %30.02 in0.2 miCalmFogFog
9:15 PM50.0 °F48.2 °F94 %30.02 in1.5 miCalmOvercast
9:35 PM50.0 °F46.4 °F87 %30.02 in1.5 miCalmMostly Cloudy
9:55 PM48.2 °F46.4 °F93 %30.03 in1.0 miCalmMostly Cloudy
10:15 PM50.0 °F46.4 °F87 %30.03 in0.8 miCalmOvercast
10:35 PM48.2 °F46.4 °F93 %30.03 in0.2 miCalmFogFog
10:55 PM50.0 °F46.4 °F87 %30.02 in0.2 miCalmFogFog
11:15 PM50.0 °F46.4 °F87 %30.02 in0.2 miCalmFogFog
11:35 PM48.2 °F46.4 °F93 %30.02 in0.2 miCalmFogFog
11:55 PM48.2 °F46.4 °F93 %30.02 in0.2 miCalmFogFog
Hourly data recorded from KMDQ, located miles away from Fayetteville, Tennessee







STORIES FROM OUR PARTNERS